ORBCOMM FM117 [+]

Last updated on July 6, 2021, 3:36 p.m. UTC

1 41188U 15081K   21186.71376193  .00000008  00000-0  40142-4 0  9995
2 41188  47.0020  54.9330 0002450 216.9996 143.0720 14.54889915296653
UTC
Height (km)
Latitude
Longitude
Inclination
Orbital Period
UTC large
Height (km)
Speed (km/s)
/
Latitude / Longitude
Inclination (degrees)
Orbital Period (minutes)
Azimuth
Elevation
Range (km)
Doppler Factor
iOS Compass Heading
iOS Angle